星链-5036 (STARLINK-5036 )

导读 | 豆包AI

STARLINK-5036是美国太空探索技术公司星链星座的成员,于2022年9月24日发射升空,归属星链互联网卫星组网计划,该计划旨在为全球提供覆盖广泛的低延迟高速卫星互联网服务。作为低轨通信卫星,它运行在近地轨道,承担信号转发与网络接入任务,助力星链完成全球网络覆盖布局。

Basic Information
目录编号:
53917
目录名称:
STARLINK-5036
国际标识:
2022-119AH
轨道中心:
EARTH
卫星名称:
星链-5036
卫星全名:
星链-5036 (STARLINK-5036 )
卫星状态:
在轨 (已飞行1268 天)
发射日期:
2022-09-24 UTC
国别 :
美国 (US)
星等 :
--
Orbit Information
数据来源 国际轨道数据 AOE轨道数据
星历时间 2026-03-15T06:00:15+0800
13小时前
查看轨道信息
2026-03-10T22:00:00+0800
4天前
查看轨道信息
半长轴 6917.937km 6917.852km
偏心率 0.0001496 0.0001434
轨道倾角 53.218° 53.220°
近地点辐角 82.961° 91.679°
升交点赤经 290.681° 310.134°
平近点角 277.155° 116.863°
近地点 538.765km 538.722km
远地点 540.835km 540.708km
周期 95.439分钟 95.437分钟
每日圈数 15.088216 15.088493
Detailed Information
固有亮度:
5
最大亮度:
2.5
卫星平台:
Starlink v1.5
覆盖范围:
全球
运营商:
太空探索技术公司
运营商所在国:
美国
制造商(研发单位):
太空探索技术公司
制造商所在国:
美国
使用方式:
暂无
Satellite Introduction
星链(Starlink)计划是由太空探索技术公司(SpaceX)提出的一个巨型低轨卫星互联网星座项目,计划在2019年至2024年间在太空搭建由约1.2万颗卫星组成的“星链”网络,其中1584颗将部署在地球上空550千米处的近地轨道,并从2020年开始工作。该卫星仍在工作。
2D Orbit Map
3D Orbit Map
Orbit Altitude Analysis Chart
Orbit Inclination Analysis Chart
Orbit Comprehensive Analysis Chart
View Comprehensive Chart